Tucson, Arizona, United States (85701)
Lat: 32.22N, Lon: 110.93W
Wx Zone: AZZ504
Local Info
Past Weather Observations for Sunday, May 24, 2015

NOTE: This archive is for the closest National Weather Service station to Tucson. Information may differ from the station used for current weather conditions.

Click here for Long-term Archive

Time Weather Temperature Dewpoint Humidity Pressure Winds Precip Visibility
23:58
Clear
64°F / 18°C 34°F / 1°C 32% 29.95 in
(1014 mb)
SSW 6.9 mph
(SSW 11 kph)
- 10SM
22:58
Clear
68°F / 20°C 32°F / 0°C 26% 29.92 in
(1013 mb)
WNW 5.8 mph
(WNW 9 kph)
- 10SM
21:58
Clear
70°F / 21°C 32°F / 0°C 25% 29.92 in
(1013 mb)
NW 6.9 mph
(NW 11 kph)
- 10SM
20:58
Clear
72°F / 22°C 32°F / 0°C 23% 29.92 in
(1013 mb)
NW 6.9 mph
(NW 11 kph)
- 10SM
19:58
Clear
75°F / 24°C 34°F / 1°C 22% 29.89 in
(1012 mb)
NW 5.8 mph
(NW 9 kph)
- 10SM
18:58
Partly Cloudy
77°F / 25°C 32°F / 0°C 19% 29.86 in
(1011 mb)
NW 6.9 mph
(NW 11 kph)
- 10SM
18:37
Partly Cloudy
77°F / 25°C 32°F / 0°C 19% 29.83 in
(1010 mb)
NNW 16.1 mph
(NNW 26 kph)
- 10SM
17:58
Partly Cloudy
77°F / 25°C 34°F / 1°C 21% 29.83 in
(1010 mb)
N 6.9 mph
(N 11 kph)
- 10SM
16:58
Partly Cloudy
79°F / 26°C 34°F / 1°C 20% 29.86 in
(1011 mb)
NW 10.4 mph
(NW 17 kph)
- 10SM
16:47
Partly Cloudy
77°F / 25°C 32°F / 0°C 19% 29.86 in
(1011 mb)
NW 12.7 mph
(NW 20 kph)
- 10SM
15:58
Clear
81°F / 27°C 32°F / 0°C 17% 29.83 in
(1010 mb)
NW 15 mph
(NW 24 kph)
- 10SM
14:58
Clear
79°F / 26°C 34°F / 1°C 20% 29.86 in
(1011 mb)
NNW 12.7 mph
(NNW 20 kph)
- 10SM
14:54
Clear
79°F / 26°C 34°F / 1°C 20% 29.86 in
(1011 mb)
NNW 15 mph
(NNW 24 kph)
- 10SM
14:46
Partly Cloudy
79°F / 26°C 34°F / 1°C 20% 29.86 in
(1011 mb)
NW 15 mph
(NW 24 kph)
- 10SM
13:58
Clear
79°F / 26°C 34°F / 1°C 20% 29.89 in
(1012 mb)
NW 8.1 mph
(NW 13 kph)
- 10SM
12:58
Mostly Cloudy
77°F / 25°C 36°F / 2°C 22% 29.92 in
(1013 mb)
Variable 5.8 mph
(Variable 9 kph)
- 10SM
11:58
Clear
75°F / 24°C 36°F / 2°C 24% 29.92 in
(1013 mb)
SSW 11.5 mph
(SSW 19 kph)
- 10SM
10:58
Clear
73°F / 23°C 36°F / 2°C 25% 29.95 in
(1014 mb)
NW 8.1 mph
(NW 13 kph)
- 10SM
09:58
Clear
73°F / 23°C 36°F / 2°C 25% 29.95 in
(1014 mb)
NW 3.5 mph
(NW 6 kph)
- 10SM
08:58
Clear
70°F / 21°C 36°F / 2°C 29% 29.98 in
(1015 mb)
E 4.6 mph
(E 7 kph)
- 10SM
07:58
Clear
66°F / 19°C 36°F / 2°C 32% 29.98 in
(1015 mb)
ESE 6.9 mph
(ESE 11 kph)
- 10SM
06:58
Clear
63°F / 17°C 36°F / 2°C 37% 29.95 in
(1014 mb)
SE 9.2 mph
(SE 15 kph)
- 10SM
05:58
Clear
57°F / 14°C 34°F / 1°C 41% 29.98 in
(1015 mb)
SE 8.1 mph
(SE 13 kph)
- 10SM
04:58
Clear
55°F / 13°C 36°F / 2°C 47% 29.95 in
(1014 mb)
SSE 6.9 mph
(SSE 11 kph)
- 10SM
03:58
Clear
57°F / 14°C 37°F / 3°C 48% 29.95 in
(1014 mb)
SSE 5.8 mph
(SSE 9 kph)
- 10SM
02:58
Clear
57°F / 14°C 36°F / 2°C 44% 29.98 in
(1015 mb)
ESE 6.9 mph
(ESE 11 kph)
- 10SM
01:58
Clear
59°F / 15°C 34°F / 1°C 39% 29.98 in
(1015 mb)
SSE 5.8 mph
(SSE 9 kph)
- 10SM
00:58
Clear
61°F / 16°C 34°F / 1°C 36% 29.98 in
(1015 mb)
SSW 8.1 mph
(SSW 13 kph)
- 10SM
Time Weather Temperature Dewpoint Humidity Pressure Winds Precip Visibility


Weather for websites

WeatherForYou.com, LLC is not responsible for any damages or problems caused by this service. Current weather conditions are obtained from the closest station including government and personal stations which may have varying degrees of accuracy. Weather forecasts are derived from the NOAA NDFD. Like all things, this site belongs to Jesus Christ... He just trusts us to maintain it. If you have any questions or comments email webmaster@weatherforyou.com

Copyright © 2015, WeatherForYou.com LLC. All rights reserved.